N6306Q KSAN-KBUR

Flight info

Callsign N6306Q
Flight time 0h 36m
Altitude 10000
Route SLI
Aircraft TBM9/L-VGD/C

Departure

Time 2026-04-24 01:43
Airport San Diego International Airport (KSAN)

Arrival

Time 2026-04-24 02:20
Airport Hollywood Burbank/Bob Hope Airport (KBUR)
Time Latitude Longitude Altitude Speed Heading
2026-04-24 01:26 32.73383 -117.17965 23 ft 0 kts 149°
2026-04-24 01:41 32.73291 -117.17974 19 ft 24 kts 197°
2026-04-24 01:41 32.73200 -117.17849 17 ft 30 kts 107°
2026-04-24 01:41 32.73126 -117.17580 17 ft 24 kts 132°
2026-04-24 01:41 32.73093 -117.17550 17 ft 0 kts 150°
2026-04-24 01:42 32.73058 -117.17533 18 ft 19 kts 175°
2026-04-24 01:42 32.73072 -117.17795 16 ft 65 kts 286°
2026-04-24 01:43 32.73252 -117.18518 114 ft 111 kts 288°
2026-04-24 01:43 32.73477 -117.19450 535 ft 125 kts 286°
2026-04-24 01:43 32.73726 -117.20514 1041 ft 142 kts 286°
2026-04-24 01:43 32.74137 -117.21627 1563 ft 153 kts 307°
2026-04-24 01:44 32.74799 -117.22664 2078 ft 162 kts 303°
2026-04-24 01:44 32.75421 -117.23819 2604 ft 170 kts 303°
2026-04-24 01:44 32.76090 -117.25023 3115 ft 177 kts 303°
2026-04-24 01:44 32.76791 -117.26264 3613 ft 182 kts 303°
2026-04-24 01:45 32.77499 -117.27518 4115 ft 183 kts 303°
2026-04-24 01:45 32.78212 -117.28777 4618 ft 184 kts 303°
2026-04-24 01:45 32.78900 -117.29997 5380 ft 166 kts 303°
2026-04-24 01:45 32.79496 -117.31044 6280 ft 149 kts 303°
2026-04-24 01:46 32.80100 -117.32052 6878 ft 151 kts 307°
2026-04-24 01:46 32.80745 -117.33044 7501 ft 151 kts 306°
2026-04-24 01:46 32.81393 -117.34055 7991 ft 165 kts 305°
2026-04-24 01:46 32.82161 -117.35259 8016 ft 199 kts 305°
2026-04-24 01:47 32.83056 -117.36656 8019 ft 223 kts 306°
2026-04-24 01:47 32.84030 -117.38170 8014 ft 237 kts 306°
2026-04-24 01:47 32.85054 -117.39753 8016 ft 245 kts 306°
2026-04-24 01:47 32.86102 -117.41374 8016 ft 249 kts 306°
2026-04-24 01:48 32.87164 -117.43019 8008 ft 252 kts 306°
2026-04-24 01:48 32.88231 -117.44676 8006 ft 253 kts 306°
2026-04-24 01:48 32.89304 -117.46341 8007 ft 254 kts 306°
2026-04-24 01:48 32.90382 -117.48014 8003 ft 254 kts 306°
2026-04-24 01:49 32.91442 -117.49663 8004 ft 255 kts 306°
2026-04-24 01:49 32.92519 -117.51340 8003 ft 255 kts 306°
2026-04-24 01:49 32.93597 -117.53017 8005 ft 255 kts 306°
2026-04-24 01:49 32.94673 -117.54694 8006 ft 255 kts 306°
2026-04-24 01:50 32.95745 -117.56380 8004 ft 255 kts 306°
2026-04-24 01:50 32.96831 -117.58051 8003 ft 255 kts 306°
2026-04-24 01:50 32.97909 -117.59730 8001 ft 255 kts 306°
2026-04-24 01:50 32.98984 -117.61412 8001 ft 255 kts 306°
2026-04-24 01:51 33.00061 -117.63095 8003 ft 255 kts 306°
2026-04-24 01:51 33.01137 -117.64777 8003 ft 255 kts 306°
2026-04-24 01:51 33.02213 -117.66456 8002 ft 255 kts 306°
2026-04-24 01:51 33.03289 -117.68138 8003 ft 255 kts 306°
2026-04-24 01:52 33.04365 -117.69821 8006 ft 255 kts 306°
2026-04-24 01:52 33.05440 -117.71503 8004 ft 255 kts 306°
2026-04-24 01:52 33.06562 -117.73141 8005 ft 255 kts 314°
2026-04-24 01:52 33.07928 -117.74501 8002 ft 256 kts 319°
2026-04-24 01:53 33.09262 -117.75864 8002 ft 256 kts 317°
2026-04-24 01:53 33.10607 -117.77259 8005 ft 256 kts 317°
2026-04-24 01:53 33.11966 -117.78639 8005 ft 256 kts 318°
2026-04-24 01:53 33.13324 -117.80016 8001 ft 256 kts 318°
2026-04-24 01:54 33.14684 -117.81398 8003 ft 256 kts 318°
2026-04-24 01:54 33.16041 -117.82781 8004 ft 257 kts 318°
2026-04-24 01:54 33.17399 -117.84166 8004 ft 257 kts 318°
2026-04-24 01:54 33.18790 -117.85504 8004 ft 257 kts 325°
2026-04-24 01:55 33.20415 -117.86406 8005 ft 259 kts 340°
2026-04-24 01:55 33.22179 -117.86880 7998 ft 260 kts 347°
2026-04-24 01:55 33.23953 -117.87319 8003 ft 260 kts 345°
2026-04-24 01:55 33.25727 -117.87773 8002 ft 261 kts 346°
2026-04-24 01:56 33.27506 -117.88215 8001 ft 261 kts 346°
2026-04-24 01:56 33.29283 -117.88655 8004 ft 261 kts 346°
2026-04-24 01:56 33.31040 -117.89091 7999 ft 261 kts 346°
2026-04-24 01:56 33.32819 -117.89536 7999 ft 261 kts 346°
2026-04-24 01:57 33.34596 -117.89977 8001 ft 261 kts 346°
2026-04-24 01:57 33.36377 -117.90422 8003 ft 261 kts 346°
2026-04-24 01:57 33.38122 -117.91004 7995 ft 259 kts 334°
2026-04-24 01:57 33.39661 -117.92108 7996 ft 257 kts 321°
2026-04-24 01:58 33.41056 -117.93447 7997 ft 257 kts 320°
2026-04-24 01:58 33.42464 -117.94765 8000 ft 257 kts 320°
2026-04-24 01:58 33.43872 -117.96090 7999 ft 257 kts 320°
2026-04-24 01:58 33.45259 -117.97403 7999 ft 257 kts 320°
2026-04-24 01:59 33.46662 -117.98734 7996 ft 257 kts 320°
2026-04-24 01:59 33.48063 -118.00058 8001 ft 257 kts 320°
2026-04-24 01:59 33.49468 -118.01389 7999 ft 257 kts 320°
2026-04-24 01:59 33.50868 -118.02717 7998 ft 257 kts 320°
2026-04-24 02:00 33.52269 -118.04045 7996 ft 257 kts 320°
2026-04-24 02:00 33.53672 -118.05373 7998 ft 257 kts 320°
2026-04-24 02:00 33.55073 -118.06702 7998 ft 257 kts 320°
2026-04-24 02:00 33.56474 -118.08032 7993 ft 256 kts 320°
2026-04-24 02:01 33.57871 -118.09358 7996 ft 256 kts 320°
2026-04-24 02:01 33.59249 -118.10670 7968 ft 256 kts 320°
2026-04-24 02:01 33.60649 -118.11999 7965 ft 256 kts 320°
2026-04-24 02:01 33.62048 -118.13325 7964 ft 256 kts 320°
2026-04-24 02:02 33.63443 -118.14656 7960 ft 256 kts 320°
2026-04-24 02:02 33.64843 -118.15987 7961 ft 257 kts 320°
2026-04-24 02:02 33.66241 -118.17316 7985 ft 257 kts 320°
2026-04-24 02:02 33.67639 -118.18648 7986 ft 256 kts 320°
2026-04-24 02:03 33.70435 -118.21314 7983 ft 256 kts 320°
2026-04-24 02:03 33.71831 -118.22645 7982 ft 256 kts 320°
2026-04-24 02:03 33.73226 -118.23975 7993 ft 256 kts 320°
2026-04-24 02:04 33.74630 -118.25308 7994 ft 257 kts 320°
2026-04-24 02:04 33.76028 -118.26651 8001 ft 258 kts 320°
2026-04-24 02:04 33.77434 -118.27997 8005 ft 259 kts 320°
2026-04-24 02:04 33.78367 -118.28885 8001 ft 258 kts 320°
2026-04-24 02:05 33.79766 -118.30217 7950 ft 247 kts 320°
2026-04-24 02:05 33.81492 -118.31866 7451 ft 233 kts 321°
2026-04-24 02:05 33.82750 -118.33072 7081 ft 229 kts 321°
2026-04-24 02:05 33.84006 -118.34273 6722 ft 236 kts 322°
2026-04-24 02:06 33.84870 -118.35103 6484 ft 243 kts 322°
2026-04-24 02:06 33.86217 -118.36392 6124 ft 250 kts 322°
2026-04-24 02:06 33.87569 -118.37691 6011 ft 244 kts 322°
2026-04-24 02:06 33.88883 -118.38946 6014 ft 239 kts 323°
2026-04-24 02:07 33.90203 -118.40210 6002 ft 246 kts 322°
2026-04-24 02:07 33.91550 -118.41508 6004 ft 249 kts 322°
2026-04-24 02:07 33.92913 -118.42817 6006 ft 251 kts 322°
2026-04-24 02:07 33.94398 -118.43937 6008 ft 253 kts 333°
2026-04-24 02:08 33.95945 -118.44995 5915 ft 259 kts 326°
2026-04-24 02:08 33.97409 -118.46336 5544 ft 268 kts 322°
2026-04-24 02:08 33.98807 -118.47708 5171 ft 251 kts 321°
2026-04-24 02:08 34.00150 -118.48992 4803 ft 243 kts 321°
2026-04-24 02:09 34.01451 -118.50218 4425 ft 239 kts 321°
2026-04-24 02:09 34.02748 -118.51453 4060 ft 237 kts 321°
2026-04-24 02:09 34.04017 -118.52650 3992 ft 225 kts 321°
2026-04-24 02:09 34.05240 -118.53791 3991 ft 221 kts 321°
2026-04-24 02:10 34.06459 -118.54924 3994 ft 220 kts 321°
2026-04-24 02:10 34.07677 -118.56058 3998 ft 222 kts 321°
2026-04-24 02:10 34.08889 -118.57233 3994 ft 223 kts 316°
2026-04-24 02:10 34.09958 -118.58576 3988 ft 218 kts 311°
2026-04-24 02:11 34.10956 -118.59893 3976 ft 207 kts 312°
2026-04-24 02:11 34.11924 -118.61163 3972 ft 203 kts 311°
2026-04-24 02:11 34.12865 -118.62410 3975 ft 200 kts 311°
2026-04-24 02:11 34.13801 -118.63645 3983 ft 199 kts 311°
2026-04-24 02:12 34.14737 -118.64881 3977 ft 203 kts 311°
2026-04-24 02:12 34.15696 -118.66142 3986 ft 204 kts 311°
2026-04-24 02:12 34.16661 -118.67413 3985 ft 205 kts 311°
2026-04-24 02:12 34.17798 -118.68441 3974 ft 208 kts 338°
2026-04-24 02:13 34.19271 -118.68538 3727 ft 221 kts 12°
2026-04-24 02:13 34.20539 -118.67601 3581 ft 199 kts 49°
2026-04-24 02:13 34.20944 -118.66195 3572 ft 170 kts 94°
2026-04-24 02:13 34.20594 -118.64908 3574 ft 156 kts 112°
2026-04-24 02:14 34.20241 -118.63718 3569 ft 149 kts 102°
2026-04-24 02:14 34.20164 -118.62471 3576 ft 146 kts 93°
2026-04-24 02:14 34.20118 -118.61266 3579 ft 145 kts 92°
2026-04-24 02:14 34.20084 -118.59980 3379 ft 164 kts 91°
2026-04-24 02:15 34.20076 -118.58567 3151 ft 172 kts 91°
2026-04-24 02:15 34.20057 -118.57115 2996 ft 171 kts 90°
2026-04-24 02:15 34.20037 -118.55722 2991 ft 161 kts 91°
2026-04-24 02:15 34.20019 -118.54397 2997 ft 155 kts 91°
2026-04-24 02:16 34.20001 -118.53119 2992 ft 149 kts 91°
2026-04-24 02:16 34.19982 -118.51896 2988 ft 139 kts 91°
2026-04-24 02:16 34.19975 -118.50855 2982 ft 114 kts 90°
2026-04-24 02:16 34.19959 -118.49893 2850 ft 116 kts 91°
2026-04-24 02:17 34.19948 -118.48912 2702 ft 119 kts 91°
2026-04-24 02:17 34.19934 -118.47892 2541 ft 122 kts 90°
2026-04-24 02:17 34.19920 -118.46869 2379 ft 122 kts 91°
2026-04-24 02:17 34.19906 -118.45844 2214 ft 122 kts 91°
2026-04-24 02:18 34.19893 -118.44815 2052 ft 123 kts 91°
2026-04-24 02:18 34.19879 -118.43803 1894 ft 121 kts 91°
2026-04-24 02:18 34.19866 -118.42794 1734 ft 118 kts 91°
2026-04-24 02:18 34.19853 -118.41801 1583 ft 118 kts 92°
2026-04-24 02:19 34.19839 -118.40821 1425 ft 116 kts 94°
2026-04-24 02:19 34.19828 -118.39848 1266 ft 116 kts 94°
2026-04-24 02:19 34.19819 -118.38884 1108 ft 115 kts 93°
2026-04-24 02:19 34.19804 -118.37927 954 ft 113 kts 93°
2026-04-24 02:20 34.19793 -118.37024 773 ft 96 kts 91°
2026-04-24 02:20 34.19783 -118.36376 722 ft 46 kts 93°
2026-04-24 02:20 34.19780 -118.36109 718 ft 23 kts 89°
2026-04-24 02:20 34.19854 -118.36026 718 ft 2 kts
2026-04-24 02:23 34.19862 -118.36028 718 ft 9 kts 337°
2026-04-24 02:23 34.19893 -118.36191 717 ft 28 kts 272°
2026-04-24 02:24 34.19944 -118.36422 721 ft 22 kts 278°
2026-04-24 02:24 34.20009 -118.36391 724 ft 17 kts 77°